| time (UTC) | temp F | wind direction | speed MPH | gust MPH | rain 1hr in | rain 24hr in | rain mn in | humidity % | barometer mb |
| 20260506121538 | 52 | 187 | 16.0 | 25.0 | 0.00 | 0.00 | 0.00 | 90 | 1016.8 |
| 20260506120038 | 52 | 161 | 16.0 | 26.0 | 0.00 | 0.00 | 0.00 | 89 | 1016.5 |
| 20260506114540 | 52 | 138 | 16.0 | 24.0 | 0.00 | 0.00 | 0.00 | 90 | 1016.2 |
| 20260506113037 | 52 | 150 | 15.0 | 24.0 | 0.00 | 0.00 | 0.00 | 89 | 1016.3 |
| 20260506111535 | 52 | 153 | 16.0 | 26.0 | 0.00 | 0.00 | 0.00 | 90 | 1016.2 |
| 20260506110043 | 52 | 148 | 19.0 | 30.0 | 0.00 | 0.00 | 0.00 | 90 | 1016.1 |
| 20260506104605 | 52 | 172 | 19.0 | 29.0 | 0.00 | 0.00 | 0.00 | 90 | 1015.9 |
| 20260506103041 | 52 | 165 | 20.0 | 29.0 | 0.00 | 0.00 | 0.00 | 90 | 1015.7 |
| 20260506101541 | 52 | 162 | 20.0 | 29.0 | 0.00 | 0.00 | 0.00 | 90 | 1015.6 |
| 20260506100042 | 52 | 155 | 18.0 | 29.0 | 0.00 | 0.00 | 0.00 | 89 | 1015.5 |
| 20260506094538 | 53 | 167 | 17.0 | 26.0 | 0.00 | 0.00 | 0.00 | 90 | 1015.5 |
| 20260506093037 | 53 | 160 | 18.0 | 28.0 | 0.00 | 0.00 | 0.00 | 89 | 1015.3 |
| 20260506091538 | 53 | 173 | 18.0 | 27.0 | 0.00 | 0.00 | 0.00 | 89 | 1015.3 |
| 20260506090044 | 53 | 141 | 20.0 | 31.0 | 0.00 | 0.00 | 0.00 | 89 | 1015.2 |
| 20260506084538 | 53 | 155 | 21.0 | 31.0 | 0.00 | 0.00 | 0.00 | 89 | 1015.1 |
| 20260506083042 | 53 | 149 | 19.0 | 29.0 | 0.00 | 0.00 | 0.00 | 89 | 1015.2 |
| 20260506081541 | 53 | 165 | 19.0 | 31.0 | 0.00 | 0.00 | 0.00 | 89 | 1015.1 |
| 20260506073037 | 54 | 158 | 18.0 | 28.0 | 0.00 | 0.00 | 0.00 | 88 | 1014.7 |
| 20260506071537 | 54 | 163 | 19.0 | 28.0 | 0.00 | 0.00 | 0.00 | 89 | 1014.6 |
| 20260506061537 | 55 | 146 | 18.0 | 28.0 | 0.00 | 0.00 | 0.00 | 86 | 1014.5 |
| 20260506044539 | 57 | 169 | 12.0 | 21.0 | 0.00 | 0.00 | 0.00 | 83 | 1013.9 |
| 20260506043047 | 57 | 161 | 13.0 | 24.0 | 0.00 | 0.00 | 0.00 | 83 | 1013.8 |
| 20260506041539 | 57 | 171 | 13.0 | 23.0 | 0.00 | 0.00 | 0.00 | 82 | 1013.6 |
| 20260506040046 | 57 | 162 | 14.0 | 22.0 | 0.00 | 0.00 | 0.00 | 82 | 1013.5 |
| 20260506034538 | 57 | 148 | 14.0 | 22.0 | 0.00 | 0.00 | 0.00 | 82 | 1013.3 |
| 20260506033039 | 58 | 147 | 16.0 | 25.0 | 0.00 | 0.00 | 0.00 | 83 | 1013.2 |
| 20260506031539 | 58 | 138 | 16.0 | 27.0 | 0.00 | 0.00 | 0.00 | 83 | 1013.1 |
| 20260506030037 | 58 | 178 | 13.0 | 19.0 | 0.00 | 0.00 | 0.00 | 82 | 1013.0 |
| 20260506024543 | 58 | 142 | 16.0 | 26.0 | 0.00 | 0.00 | 0.00 | 82 | 1013.0 |
| 20260506023035 | 58 | 163 | 17.0 | 25.0 | 0.00 | 0.00 | 0.00 | 83 | 1013.2 |
| 20260506021551 | 58 | 156 | 15.0 | 23.0 | 0.00 | 0.00 | 0.00 | 82 | 1013.1 |
| 20260506020038 | 59 | 160 | 14.0 | 20.0 | 0.00 | 0.00 | 0.00 | 82 | 1013.1 |
| 20260506014550 | 59 | 167 | 12.0 | 20.0 | 0.00 | 0.00 | 0.00 | 82 | 1013.1 |
| 20260506013038 | 59 | 182 | 11.0 | 21.0 | 0.00 | 0.00 | 0.00 | 81 | 1013.1 |
| 20260506011544 | 60 | 167 | 12.0 | 18.0 | 0.00 | 0.00 | 0.00 | 81 | 1013.1 |
| 20260506010047 | 61 | 169 | 12.0 | 20.0 | 0.00 | 0.00 | 0.00 | 78 | 1013.1 |
| 20260506004537 | 61 | 180 | 13.0 | 21.0 | 0.00 | 0.00 | 0.00 | 79 | 1013.1 |
| 20260506003038 | 61 | 180 | 12.0 | 20.0 | 0.00 | 0.00 | 0.00 | 80 | 1013.1 |
| 20260506001537 | 60 | 202 | 14.0 | 21.0 | 0.00 | 0.00 | 0.00 | 79 | 1013.3 |
| 20260506000039 | 61 | 199 | 12.0 | 20.0 | 0.00 | 0.00 | 0.00 | 80 | 1013.4 |
| 20260505234602 | 60 | 171 | 12.0 | 20.0 | 0.00 | 0.00 | 0.00 | 81 | 1013.5 |
| 20260505233038 | 61 | 163 | 12.0 | 21.0 | 0.00 | 0.00 | 0.00 | 81 | 1013.7 |
| 20260505231539 | 60 | 180 | 12.0 | 21.0 | 0.00 | 0.00 | 0.00 | 81 | 1013.7 |
| 20260505230042 | 60 | 196 | 14.0 | 22.0 | 0.00 | 0.00 | 0.00 | 81 | 1013.7 |
| 20260505224538 | 60 | 198 | 13.0 | 21.0 | 0.00 | 0.00 | 0.00 | 82 | 1013.8 |
| 20260505223037 | 60 | 182 | 13.0 | 20.0 | 0.00 | 0.00 | 0.00 | 80 | 1014.0 |
| 20260505221537 | 60 | 184 | 12.0 | 21.0 | 0.00 | 0.00 | 0.00 | 81 | 1014.2 |
| 20260505220037 | 61 | 191 | 11.0 | 19.0 | 0.00 | 0.00 | 0.00 | 81 | 1014.2 |
| 20260505214550 | 61 | 198 | 11.0 | 19.0 | 0.00 | 0.00 | 0.00 | 81 | 1014.2 |
| 20260505213037 | 61 | 178 | 11.0 | 17.0 | 0.00 | 0.00 | 0.00 | 80 | 1014.3 |
| 20260505211545 | 60 | 178 | 11.0 | 20.0 | 0.00 | 0.00 | 0.00 | 79 | 1014.4 |
| 20260505210038 | 61 | 167 | 9.0 | 19.0 | 0.00 | 0.00 | 0.00 | 80 | 1014.5 |
| 20260505204538 | 60 | 196 | 10.0 | 17.0 | 0.00 | 0.00 | 0.00 | 81 | 1014.6 |
| 20260505203049 | 60 | 209 | 9.0 | 14.0 | 0.00 | 0.00 | 0.00 | 81 | 1014.6 |
| 20260505201538 | 60 | 206 | 9.0 | 17.0 | 0.00 | 0.00 | 0.00 | 82 | 1014.5 |
| 20260505200038 | 60 | 204 | 8.0 | 17.0 | 0.00 | 0.00 | 0.00 | 81 | 1014.6 |
| 20260505194542 | 60 | 205 | 10.0 | 17.0 | 0.00 | 0.00 | 0.00 | 84 | 1014.6 |
| 20260505193033 | 59 | 213 | 10.0 | 17.0 | 0.00 | 0.00 | 0.00 | 83 | 1014.7 |
| 20260505191543 | 58 | 213 | 10.0 | 17.0 | 0.00 | 0.00 | 0.00 | 83 | 1014.8 |
| 20260505190042 | 58 | 159 | 9.0 | 15.0 | 0.00 | 0.00 | 0.00 | 85 | 1014.7 |
| 20260505184547 | 57 | 191 | 9.0 | 16.0 | 0.00 | 0.00 | 0.00 | 85 | 1014.8 |
| 20260505183042 | 57 | 187 | 8.0 | 15.0 | 0.00 | 0.00 | 0.00 | 86 | 1014.8 |
| 20260505181534 | 56 | 179 | 8.0 | 15.0 | 0.00 | 0.00 | 0.00 | 87 | 1014.7 |
| 20260505180033 | 56 | 186 | 8.0 | 15.0 | 0.00 | 0.00 | 0.00 | 87 | 1014.6 |
| 20260505174540 | 56 | 214 | 9.0 | 14.0 | 0.00 | 0.00 | 0.00 | 88 | 1014.5 |
| 20260505173037 | 56 | 181 | 8.0 | 17.0 | 0.00 | 0.00 | 0.00 | 89 | 1014.5 |
| 20260505171537 | 55 | 192 | 8.0 | 15.0 | 0.00 | 0.00 | 0.00 | 90 | 1014.5 |
| 20260505170039 | 54 | 190 | 9.0 | 17.0 | 0.00 | 0.00 | 0.00 | 91 | 1014.4 |
| 20260505164539 | 54 | 167 | 10.0 | 16.0 | 0.00 | 0.00 | 0.00 | 91 | 1014.5 |
| 20260505163104 | 54 | 186 | 9.0 | 15.0 | 0.00 | 0.00 | 0.00 | 91 | 1014.4 |
| 20260505161540 | 54 | 177 | 8.0 | 16.0 | 0.00 | 0.00 | 0.00 | 92 | 1014.3 |
| 20260505153044 | 53 | 158 | 8.0 | 17.0 | 0.00 | 0.00 | 0.00 | 92 | 1014.2 |
| 20260505151539 | 53 | 196 | 11.0 | 19.0 | 0.00 | 0.00 | 0.00 | 91 | 1014.1 |
| 20260505124536 | 53 | 166 | 20.0 | 28.0 | 0.00 | 0.00 | 0.00 | 90 | 1012.3 |
| 20260505123036 | 53 | 167 | 17.0 | 29.0 | 0.00 | 0.00 | 0.00 | 89 | 1012.2 |